Location: ?????
(30.2541°N, 31.0910°E)
Time: 19:53:47
(UTC+00:00)

Cosmos 1633 Rocket - Pass Details

Date: 06 April 2023
Orbit: 604 x 623 km, 82.5° (Epoch: 30 May)

Event Time Altitude Azimuth Distance (km) Brightness Sun altitude
Rises 02:17:37 0° 345° (NNW) 2,893 6.6 -18.0°
Reaches altitude 10° 02:19:56 10° 339° (NNW) 1,981 5.6 -17.6°
Maximum altitude 02:24:04 42° 268° (W) 874 3.3 -16.7°
Enters shadow 02:27:36 13° 200° (SSW) 1,743 5.0 -16.0°
